Simultaneous Nadir Overpasses (SNOs) Predictions

Prediction of SNOs between AQUA and GOES-15 Satellite Orbit:

Table of predicted SNOs for the next 14.0 days since TLE Epoch: 2/22/2014
Index Date Time (AQUA) AQUA Lat,Lon GOES-15 Lat,Lon Distance(km) Time Diff (sec)
1 02/23/2014 10:32:42 -0.25,-134.19 -0.07,-135.20 113.86 80
2 02/23/2014 22:54:05 -0.84,-139.38 0.07,-135.19 477.21 80
3 02/25/2014 10:20:30 -0.92,-131.23 -0.06,-135.14 445.19 80
4 02/25/2014 22:41:52 -0.23,-136.41 0.06,-135.13 145.85 80
5 02/27/2014 22:29:40 0.41,-133.44 0.05,-135.07 185.34 80
6 02/28/2014 10:50:54 0.69,-138.60 -0.05,-135.06 402.22 80
7 03/02/2014 10:38:40 0.06,-135.63 -0.05,-134.99 71.32 80
8 03/04/2014 10:26:25 -0.54,-132.64 -0.05,-134.93 259.46 80
9 03/04/2014 22:47:48 -0.58,-137.83 0.05,-134.91 332.34 80
10 03/06/2014 22:35:33 0.05,-134.85 0.05,-134.84 2.15 80




NCC Satellite Simultaneous Nadir Overpasses (SNOs) Prediction Service
